ASTRA 2C

Last updated on Sept. 28, 2020, 5:45 a.m. UTC

1 26853U 01025A   20271.85034438  .00000116  00000-0  00000-0 0  9997
2 26853   3.0637  84.6757 0002995  90.2267 162.0242  1.00269963 24114
UTC
Height (km)
Latitude
Longitude
Inclination
Orbital Period
UTC large
Height (km)
Speed (km/s)
/
Latitude / Longitude
Inclination (degrees)
Orbital Period (minutes)
Azimuth
Elevation
Range (km)
Doppler Factor
iOS Compass Heading
iOS Angle

Next 30 passes for location: Hong Kong

Rise time Rise Azimuth (degrees) Set time Set Azimuth (degrees) Duration Max altitude (degrees)

No matching passes for this satellites